Weather History for Lima, OH

Change the Weather History Date:

Friday, January 3, 2014

  Actual Average (KFDY) Record (KFDY)
Temperature  
Mean Temperature 2 °F -  
Max Temperature 12 °F 34 °F 62 °F (1950)
Min Temperature -7 °F 21 °F -9 °F (2014)
Degree Days  
Heating Degree Days 62    
Moisture  
Dew Point -5 °F    
Average Humidity 63    
Maximum Humidity 75    
Minimum Humidity 49    
Precipitation  
Precipitation 0.00 in - - ()
Sea Level Pressure  
Sea Level Pressure 30.40 in    
Wind  
Wind Speed 8 mph (SW)    
Max Wind Speed 14 mph    
Max Gust Speed -    
Visibility 10 miles    
Events      
Averages and records for this station are not official NWS values.
T = Trace of Precipitation, MM = Missing Value Source: NWS Daily Summary

Daily Weather History Graph

Daily Weather History Graph

Search for Another Location

Airport:

Trip Planner

Search our weather history database for the weather conditions in past years. The results will help you decide how hot, cold, wet, or windy it might be!

Date:

Astronomy

Jan. 03, 2014 Rise Set
Actual Time 8:00 AM EST 5:21 PM EST
Civil Twilight 7:29 AM EST 5:52 PM EST
Nautical Twilight 6:55 AM EST 6:26 PM EST
Astronomical Twilight 6:22 AM EST 6:59 PM EST
Moon 9:24 AM EST (1/3) 8:30 PM EST (1/3)
Length of Visible Light 10h 22m
Length of Day
9h 20m
Waxing Crescent, 8% of the Moon is Illuminated
Jan 3
Waxing Crescent
Jan 7
First Quarter
Jan 15
Full
Jan 24
Last Quarter
Jan 30
New

Hourly Weather History & Observations

Time (EST) Temp. Windchill Dew Point Humidity Pressure Visibility Wind Dir Wind Speed Gust Speed Precip Events Conditions
12:53 AM 6.1 °F -9.5 °F -2.9 °F 67% 30.32 in 10.0 mi NNW 11.5 mph - N/A   Clear
1:53 AM 3.9 °F -10.4 °F -6.0 °F 64% 30.33 in 10.0 mi North 9.2 mph - N/A   Clear
2:53 AM 1.9 °F -10.6 °F -8.0 °F 63% 30.36 in 10.0 mi NNW 6.9 mph - N/A   Clear
3:53 AM -2.9 °F -17.7 °F -11.0 °F 68% 30.40 in 10.0 mi NW 8.1 mph - N/A   Clear
4:53 AM -4.0 °F -16.3 °F -11.0 °F 72% 30.40 in 10.0 mi NW 5.8 mph - N/A   Clear
5:53 AM -5.1 °F -19.1 °F -11.9 °F 72% 30.42 in 10.0 mi NW 6.9 mph - N/A   Clear
6:53 AM -7.1 °F -19.9 °F -13.0 °F 75% 30.45 in 10.0 mi WNW 5.8 mph - N/A   Clear
7:53 AM -2.0 °F -10.1 °F -9.0 °F 72% 30.47 in 10.0 mi West 3.5 mph - N/A   Clear
8:53 AM -2.9 °F -11.2 °F -9.0 °F 75% 30.48 in 10.0 mi WSW 3.5 mph - N/A   Clear
9:53 AM -0.0 °F -7.9 °F -7.1 °F 72% 30.50 in 10.0 mi West 3.5 mph - N/A   Clear
10:53 AM 3.9 °F -5.3 °F -5.1 °F 66% 30.52 in 10.0 mi SSW 4.6 mph - N/A   Clear
11:53 AM 6.1 °F -5.6 °F -4.0 °F 63% 30.49 in 10.0 mi WSW 6.9 mph - N/A   Clear
12:53 PM 8.1 °F -2.0 °F -4.0 °F 58% 30.47 in 10.0 mi SW 5.8 mph - N/A   Clear
1:53 PM 9.0 °F -2.2 °F -4.0 °F 56% 30.46 in 10.0 mi SW 6.9 mph - N/A   Clear
2:53 PM 10.0 °F -0.9 °F -4.0 °F 53% 30.44 in 10.0 mi SSW 6.9 mph - N/A   Clear
3:53 PM 10.9 °F -0.8 °F -5.1 °F 49% 30.45 in 10.0 mi South 8.1 mph - N/A   Clear
4:53 PM 10.0 °F 0.4 °F -5.1 °F 51% 30.42 in 10.0 mi South 5.8 mph - N/A   Clear
5:53 PM 10.9 °F -3.4 °F -2.0 °F 56% 30.41 in 10.0 mi South 11.5 mph - N/A   Mostly Cloudy
6:53 PM 12.0 °F -2.7 °F -0.9 °F 56% 30.38 in 10.0 mi South 12.7 mph - N/A   Overcast
7:53 PM 12.9 °F -0.9 °F -0.0 °F 56% 30.35 in 10.0 mi South 11.5 mph - N/A   Mostly Cloudy
8:53 PM 10.9 °F -3.4 °F -0.0 °F 61% 30.33 in 10.0 mi SSE 11.5 mph - N/A   Mostly Cloudy
9:53 PM 12.0 °F -2.7 °F 1.9 °F 64% 30.30 in 10.0 mi South 12.7 mph - N/A   Partly Cloudy
10:53 PM 10.9 °F -4.1 °F 1.9 °F 67% 30.28 in 10.0 mi South 12.7 mph - N/A   Clear
11:53 PM 10.0 °F -5.9 °F 1.0 °F 67% 30.25 in 10.0 mi SSE 13.8 mph - N/A   Clear